• In Deutschland
  • Länderverzeichnis
  • Für 7 Tage
  • Wassertemperatur
  • Satellitenkarten
  • Wetterkarte
  • Widgets
  • user-avatar
    Anmelden

    Stündliche Wetter Fier

    Heute, 30 April, Sonntag

    Zeit Temperatur Niederschläge Wind Luftdruck Luftfeuchtigkeit
    00:00 +14°C° 0 mm 4 m/S 756 mmHg 72%
    01:00 +13°C° 0 mm 5 m/S 756 mmHg 75%
    02:00 +13°C° 0 mm 5 m/S 756 mmHg 78%
    03:00 +13°C° 0 mm 4 m/S 756 mmHg 80%
    04:00 +13°C° 0 mm 4 m/S 756 mmHg 83%
    05:00 +14°C° 0 mm 4 m/S 756 mmHg 77%
    06:00 +17°C° 0 mm 4 m/S 756 mmHg 71%
    07:00 +20°C° 0 mm 4 m/S 756 mmHg 61%
    08:00 +22°C° 0,1 mm 4 m/S 756 mmHg 56%
    09:00 +23°C° 0,1 mm 4 m/S 756 mmHg 52%
    10:00 +26°C° 0,1 mm 4 m/S 756 mmHg 48%
    11:00 +26°C° 0,2 mm 5 m/S 756 mmHg 49%
    12:00 +26°C° 0,2 mm 5 m/S 756 mmHg 51%
    13:00 +26°C° 0,2 mm 6 m/S 755 mmHg 52%
    14:00 +25°C° 0,3 mm 5 m/S 755 mmHg 56%
    15:00 +22°C° 0,3 mm 5 m/S 755 mmHg 61%
    16:00 +21°C° 0,3 mm 5 m/S 755 mmHg 65%
    17:00 +20°C° 0,4 mm 4 m/S 756 mmHg 73%
    18:00 +18°C° 0,4 mm 4 m/S 756 mmHg 80%
    19:00 +17°C° 0,4 mm 4 m/S 756 mmHg 88%
    20:00 +15°C° 0,2 mm 4 m/S 756 mmHg 89%
    21:00 +16°C° 0,2 mm 3 m/S 757 mmHg 91%
    22:00 +14°C° 0,2 mm 3 m/S 757 mmHg 92%
    23:00 +14°C° 0,1 mm 3 m/S 757 mmHg 92%

    Morgen, 1 Mai, Montag

    Zeit Temperatur Niederschläge Wind Luftdruck Luftfeuchtigkeit
    00:00 +14°C° 0,1 mm 3 m/S 757 mmHg 93%
    01:00 +13°C° 0,1 mm 3 m/S 758 mmHg 93%
    02:00 +13°C° 0 mm 3 m/S 758 mmHg 93%
    03:00 +13°C° 0 mm 3 m/S 758 mmHg 93%
    04:00 +12°C° 0 mm 3 m/S 758 mmHg 93%
    05:00 +14°C° 0 mm 3 m/S 758 mmHg 87%
    06:00 +17°C° 0 mm 3 m/S 758 mmHg 81%
    07:00 +18°C° 0 mm 3 m/S 758 mmHg 75%
    08:00 +20°C° 0 mm 3 m/S 758 mmHg 68%
    09:00 +22°C° 0 mm 3 m/S 759 mmHg 60%
    10:00 +25°C° 0 mm 3 m/S 759 mmHg 53%
    11:00 +25°C° 0 mm 4 m/S 759 mmHg 53%
    12:00 +25°C° 0 mm 4 m/S 759 mmHg 54%
    13:00 +25°C° 0 mm 4 m/S 758 mmHg 54%
    14:00 +25°C° 0,2 mm 4 m/S 758 mmHg 58%
    15:00 +23°C° 0,2 mm 4 m/S 758 mmHg 61%
    16:00 +22°C° 0,2 mm 4 m/S 758 mmHg 65%
    17:00 +20°C° 0,1 mm 3 m/S 759 mmHg 73%
    18:00 +18°C° 0,1 mm 3 m/S 759 mmHg 82%
    19:00 +16°C° 0,1 mm 2 m/S 759 mmHg 90%
    20:00 +16°C° 0 mm 2 m/S 759 mmHg 91%
    21:00 +15°C° 0 mm 1 m/S 760 mmHg 91%
    22:00 +15°C° 0 mm 1 m/S 760 mmHg 91%
    23:00 +15°C° 0 mm 1 m/S 760 mmHg 91%

    übermorgen, 2 Mai, Dienstag

    Zeit Temperatur Niederschläge Wind Luftdruck Luftfeuchtigkeit
    00:00 +14°C° 0 mm 1 m/S 760 mmHg 91%
    01:00 +14°C° 0 mm 1 m/S 760 mmHg 91%
    02:00 +14°C° 0 mm 1 m/S 760 mmHg 91%
    03:00 +14°C° 0 mm 1 m/S 760 mmHg 91%
    04:00 +13°C° 0 mm 1 m/S 760 mmHg 92%
    05:00 +16°C° 0 mm 1 m/S 760 mmHg 85%
    06:00 +19°C° 0 mm 1 m/S 760 mmHg 78%
    07:00 +21°C° 0 mm 1 m/S 760 mmHg 71%
    08:00 +23°C° 0 mm 2 m/S 761 mmHg 64%
    09:00 +25°C° 0 mm 2 m/S 761 mmHg 56%
    10:00 +26°C° 0 mm 2 m/S 761 mmHg 48%
    11:00 +27°C° 0 mm 3 m/S 761 mmHg 46%
    12:00 +27°C° 0 mm 4 m/S 761 mmHg 45%
    13:00 +27°C° 0 mm 4 m/S 761 mmHg 43%
    14:00 +27°C° 0 mm 4 m/S 760 mmHg 45%
    15:00 +26°C° 0 mm 4 m/S 760 mmHg 46%
    16:00 +25°C° 0 mm 4 m/S 760 mmHg 48%
    17:00 +22°C° 0 mm 4 m/S 760 mmHg 56%
    18:00 +19°C° 0 mm 3 m/S 761 mmHg 65%
    19:00 +17°C° 0 mm 3 m/S 761 mmHg 73%
    20:00 +16°C° 0 mm 2 m/S 761 mmHg 74%
    21:00 +16°C° 0 mm 2 m/S 761 mmHg 76%
    22:00 +16°C° 0 mm 2 m/S 762 mmHg 77%
    23:00 +15°C° 0 mm 2 m/S 761 mmHg 79%

    3 Mai, Mittwoch

    Zeit Temperatur Niederschläge Wind Luftdruck Luftfeuchtigkeit
    00:00 +15°C° 0 mm 2 m/S 761 mmHg 81%
    01:00 +15°C° 0 mm 2 m/S 761 mmHg 82%
    02:00 +15°C° 0 mm 2 m/S 761 mmHg 83%
    03:00 +14°C° 0 mm 2 m/S 761 mmHg 84%
    04:00 +14°C° 0 mm 2 m/S 761 mmHg 85%
    05:00 +16°C° 0 mm 2 m/S 761 mmHg 77%
    06:00 +20°C° 0 mm 1 m/S 761 mmHg 69%
    07:00 +22°C° 0 mm 1 m/S 761 mmHg 61%
    08:00 +24°C° 0 mm 2 m/S 761 mmHg 56%
    09:00 +25°C° 0 mm 2 m/S 761 mmHg 51%
    10:00 +27°C° 0 mm 2 m/S 761 mmHg 46%
    11:00 +27°C° 0,1 mm 3 m/S 761 mmHg 45%
    12:00 +27°C° 0,1 mm 3 m/S 761 mmHg 44%
    13:00 +27°C° 0,1 mm 4 m/S 760 mmHg 44%
    14:00 +27°C° 0,1 mm 4 m/S 760 mmHg 46%
    15:00 +26°C° 0,1 mm 3 m/S 760 mmHg 48%
    16:00 +25°C° 0,1 mm 3 m/S 760 mmHg 49%
    17:00 +22°C° 0 mm 3 m/S 760 mmHg 58%
    18:00 +19°C° 0 mm 2 m/S 760 mmHg 67%
    19:00 +17°C° 0 mm 2 m/S 760 mmHg 76%
    20:00 +16°C° 0 mm 1 m/S 760 mmHg 79%
    21:00 +16°C° 0 mm 1 m/S 761 mmHg 82%
    22:00 +15°C° 0 mm 1 m/S 761 mmHg 85%
    23:00 +14°C° 0 mm 0 m/S 760 mmHg 85%

    4 Mai, Donnerstag

    Zeit Temperatur Niederschläge Wind Luftdruck Luftfeuchtigkeit
    00:00 +14°C° 0 mm 0 m/S 760 mmHg 85%
    01:00 +13°C° 0 mm 0 m/S 760 mmHg 85%
    02:00 +13°C° 0 mm 0 m/S 760 mmHg 85%
    03:00 +13°C° 0 mm 0 m/S 760 mmHg 85%
    04:00 +13°C° 0 mm 0 m/S 759 mmHg 84%
    05:00 +16°C° 0 mm 1 m/S 759 mmHg 76%
    06:00 +19°C° 0 mm 1 m/S 759 mmHg 67%
    07:00 +22°C° 0 mm 1 m/S 759 mmHg 59%
    08:00 +23°C° 0 mm 2 m/S 759 mmHg 53%
    09:00 +24°C° 0 mm 2 m/S 759 mmHg 46%
    10:00 +26°C° 0 mm 3 m/S 759 mmHg 40%
    11:00 +26°C° 0 mm 3 m/S 759 mmHg 40%
    12:00 +26°C° 0 mm 4 m/S 759 mmHg 41%
    13:00 +26°C° 0 mm 4 m/S 759 mmHg 41%
    14:00 +26°C° 0 mm 4 m/S 759 mmHg 44%
    15:00 +25°C° 0 mm 4 m/S 759 mmHg 47%
    16:00 +24°C° 0 mm 3 m/S 759 mmHg 50%
    17:00 +21°C° 0 mm 3 m/S 759 mmHg 61%
    18:00 +19°C° 0 mm 2 m/S 759 mmHg 72%
    19:00 +16°C° 0 mm 2 m/S 759 mmHg 82%
    20:00 +16°C° 0 mm 2 m/S 759 mmHg 84%
    21:00 +15°C° 0 mm 2 m/S 760 mmHg 86%
    22:00 +15°C° 0 mm 2 m/S 760 mmHg 87%
    23:00 +14°C° 0 mm 2 m/S 760 mmHg 87%

    5 Mai, Freitag

    Zeit Temperatur Niederschläge Wind Luftdruck Luftfeuchtigkeit
    00:00 +14°C° 0 mm 2 m/S 760 mmHg 87%
    01:00 +14°C° 0 mm 2 m/S 759 mmHg 86%
    02:00 +14°C° 0 mm 2 m/S 759 mmHg 86%
    03:00 +13°C° 0 mm 2 m/S 759 mmHg 85%
    04:00 +13°C° 0 mm 2 m/S 759 mmHg 85%
    05:00 +15°C° 0 mm 2 m/S 759 mmHg 75%
    06:00 +19°C° 0 mm 1 m/S 759 mmHg 66%
    07:00 +21°C° 0 mm 1 m/S 759 mmHg 57%
    08:00 +21°C° 0 mm 2 m/S 759 mmHg 51%
    09:00 +24°C° 0 mm 2 m/S 759 mmHg 46%
    10:00 +25°C° 0 mm 3 m/S 759 mmHg 41%
    11:00 +25°C° 0 mm 3 m/S 759 mmHg 42%
    12:00 +25°C° 0 mm 4 m/S 758 mmHg 42%
    13:00 +26°C° 0 mm 4 m/S 758 mmHg 42%
    14:00 +25°C° 0 mm 4 m/S 758 mmHg 45%
    15:00 +23°C° 0 mm 4 m/S 758 mmHg 48%
    16:00 +22°C° 0 mm 4 m/S 758 mmHg 51%
    17:00 +20°C° 0 mm 4 m/S 758 mmHg 62%
    18:00 +18°C° 0 mm 3 m/S 759 mmHg 74%
    19:00 +16°C° 0 mm 2 m/S 759 mmHg 85%
    20:00 +15°C° 0 mm 2 m/S 759 mmHg 87%
    21:00 +14°C° 0 mm 2 m/S 760 mmHg 88%
    22:00 +13°C° 0 mm 1 m/S 760 mmHg 90%
    23:00 +13°C° 0 mm 1 m/S 760 mmHg 89%
    Mehr zeigen